Regional Weather Roundup
Issued by NWS Portland, ME

Current Version | Previous Version | Text Only | Print | Product List | Glossary Off
Versions: 1 2 3 4 5 6 7 8 9 10 11 12 13 14 15 16 17 18 19 20 21 22 23 24 25 26 27 28 29 30 31 32 33 34 35 36 37 38 39 40 41 42 43 44 45 46 47 48 49 50

000
ASUS41 KGYX 291005
RWRGYX
WEATHER ROUNDUP FOR MAINE AND NEW HAMPSHIRE
NATIONAL WEATHER SERVICE GRAY ME
600 AM EDT FRI JUL 29 2016

MEZ002-005-006-010-012-015-018-020-021-024-026-027-029-291100-
MAINE

CITY           SKY/WX    TMP DP  RH WIND       PRES   REMARKS
PORTLAND       CLOUDY    69  65  86 N3        29.86S
SANFORD          N/A     67  66  97 CALM      29.88R
BAR HARBOR     CLOUDY    63  62  97 N3        29.89R
WISCASSET      CLOUDY    67  64  90 CALM      29.88R
ROCKLAND       FOG       65  64  97 CALM      29.88R VSB 1/4
FRYEBURG       CLOUDY    65  64  97 CALM      29.89S
LEWISTONAUBURN PTCLDY    64  63  96 MISG      29.88S
AUGUSTA        CLOUDY    66  64  93 N6        29.89S
WATERVILLE     FOG       64  64 100 CALM      29.87S VSB 1
BANGOR         FOG       70  67  90 NW3       29.89R VSB 1/2
GREENVILLE       N/A     65  56  72 N3        29.92R
MILLINOCKET    PTCLDY    64  62  93 CALM      29.91R
HOULTON        FOG       63  63 100 NW3       29.89R VSB 1/4
PRESQUE ISLE   CLOUDY    61  61 100 CALM      29.91R
FRENCHVILLE    CLEAR     58  54  86 NW3       29.91R
CARIBOU        PTCLDY    60  59  96 CALM      29.90R FOG
$$

NHZ002-005-008-009-011-012-014-291100-
NEW HAMPSHIRE

CITY           SKY/WX    TMP DP  RH WIND       PRES   REMARKS
ROCHESTER      CLOUDY    70  63  78 N3        29.87R
NASHUA         LGT RAIN  72  69  90 NW5       29.88R
MANCHESTER     LGT RAIN  73  66  78 NW3       29.87R
CONCORD        RAIN      70  66  87 NE7       29.87S FOG
LACONIA        CLOUDY    70  67  90 CALM      29.90R
PLYMOUTH       MOCLDY    64  63  96 CALM      29.90R FOG
BERLIN         CLOUDY    60  57  89 CALM      29.93S FOG
WHITEFIELD     CLOUDY    60  58  92 CALM      29.93R FOG
JAFFREY        LGT RAIN  69  66  90 CALM      29.91S FOG
KEENE          MOCLDY    68  67  96 S3        29.89S FOG
LEBANON        MOCLDY    67  64  90 CALM      29.89S
MT WASHINGTON  CLOUDY    52  50  93 W12         N/A
$$

VTZ005-007-008-291100-
VERMONT

CITY           SKY/WX    TMP DP  RH WIND       PRES   REMARKS
ST JOHNSBURY     N/A     65  62  90 MISG      29.90R
MONTPELIER     FOG       64  64 100 CALM      29.96S VSB 1/2
BURLINGTON     CLOUDY    68  64  87 CALM      29.91R
$$

MAZ007-012-024-CTZ003-RIZ002-NYZ038-NYZ072-291100-
SOUTHERN NEW ENGLAND AND NY

CITY           SKY/WX    TMP DP  RH WIND       PRES   REMARKS
BOSTON         LGT RAIN  77  71  82 W8        29.85R
WORCESTER      LGT RAIN  69  65  86 W9        29.90S
NANTUCKET        N/A     70  70 100 CALM      29.85S FOG
PROVIDENCE     LGT RAIN  75  72  90 NW6       29.85S FOG
HARTFORD       LGT RAIN  72  69  90 CALM      29.87S
ALBANY         CLOUDY    69  67  93 N3        29.86F
NEW YORK CITY  LGT RAIN  71  69  93 NE12      29.83F FOG
$$

ANZ081-ANZ082-ANZ150-NHZ014-MEZ023>029-291100-
COASTAL MARINE OBSERVATIONS

STATION/POSITION TIME  TEMP    WIND        PRES    WAVE
                       AIR SEA DIR/SP/G            HT/PER
                 (UTC) (F)     (DEG/KT/KT) (MB)    (FT/S)
MOUNT DESERT ROC 0900   63     300/  3/  3 1011.6F
MATINICUS ROCK   0900   68     190/  9/ 10 1010.9F
ISLE OF SHOALS   0900   71      30/  9/ 10 1010.3S
JEFFREYS LEDGE   0908      69                N/A     2/ 3
CASHES LEDGE BUO 0950   71 72  190/  8/  8 1011.0R   2/ 5
GEORGES BANK BUO 0850   71 68              1012.2    2/ 6
$$

.............KEY..............
   WCI - WIND CHILL
   TC  - TEMPERATURE IN CELSIUS
   VSB - VISIBILITY IN MILES
   HX  - HEAT INDEX
   FAIR- INDICATES FEW OR NO CLOUDS BELOW 12,000 FT, WITH NO
         SIGNIFICANT WEATHER AND/OR OBSTRUCTIONS TO VISIBILITY.





USA.gov is the U.S. government's official web portal to all federal, state and local government web resources and services.